Location: Unspecified
(0.0000°N, 0.0000°E)
Time: 06:38:21
(UTC+00:00)

N. Korean satellite - Pass Details

Date: 22 July 2021
Orbit: 451 x 498 km, 97.2° (Epoch: 31 July)

Event Time Altitude Azimuth Distance (km) Brightness Sun altitude
Rises 05:37:51 0° 343° (NNW) 2,516 10.2 -6.7°
Reaches altitude 10° 05:40:31 10° 320° (NW) 1,631 9.0 -6.1°
Maximum altitude 05:42:42 16° 281° (WNW) 1,305 8.2 -5.6°
Drops below altitude 10° 05:44:53 10° 242° (WSW) 1,620 8.6 -5.1°
Enters shadow 05:46:40 - 225° (SW) 2,173 9.3 -4.7°
